| time (UTC) | temp F | wind direction | speed knots | gust knots | rain 1hr in | rain 24hr in | rain mn in | humidity % | barometer mb |
| 20260506224435 | 62 | 253 | 5.2 | 7.8 | 0.00 | 0.00 | 0.00 | 76 | 1012.4 |
| 20260506223931 | 62 | 208 | 3.5 | 6.1 | 0.00 | 0.00 | 0.00 | 78 | 1012.3 |
| 20260506223426 | 63 | 238 | 4.3 | 6.1 | 0.00 | 0.00 | 0.00 | 77 | 1012.1 |
| 20260506222924 | 62 | 167 | 7.0 | 13.9 | 0.00 | 0.00 | 0.00 | 77 | 1012.7 |
| 20260506222420 | 63 | 249 | 1.7 | 3.5 | 0.00 | 0.00 | 0.00 | 79 | 1012.6 |
| 20260506221917 | 62 | 219 | 2.6 | 8.7 | 0.00 | 0.00 | 0.00 | 81 | 1012.7 |
| 20260506221414 | 63 | 261 | 5.2 | 8.7 | 0.00 | 0.00 | 0.00 | 80 | 1012.4 |
| 20260506220912 | 63 | 265 | 3.5 | 9.6 | 0.00 | 0.00 | 0.00 | 78 | 1012.3 |
| 20260506220408 | 64 | 208 | 3.5 | 7.8 | 0.00 | 0.00 | 0.00 | 78 | 1012.1 |
| 20260506215904 | 64 | 246 | 3.5 | 7.8 | 0.00 | 0.00 | 0.00 | 79 | 1012.2 |
| 20260506215400 | 65 | 184 | 0.9 | 5.2 | 0.00 | 0.00 | 0.00 | 77 | 1012.2 |
| 20260506214850 | 65 | 190 | 3.5 | 5.2 | 0.00 | 0.00 | 0.00 | 77 | 1011.9 |
| 20260506214347 | 67 | 180 | 3.5 | 7.8 | 0.00 | 0.00 | 0.00 | 75 | 1011.9 |
| 20260506213846 | 67 | 232 | 2.6 | 7.0 | 0.00 | 0.00 | 0.00 | 75 | 1012.0 |
| 20260506213342 | 67 | 200 | 3.5 | 7.0 | 0.00 | 0.00 | 0.00 | 73 | 1011.6 |
| 20260506212839 | 68 | 171 | 5.2 | 7.0 | 0.00 | 0.00 | 0.00 | 72 | 1011.6 |
| 20260506212336 | 67 | 238 | 1.7 | 6.1 | 0.00 | 0.00 | 0.00 | 76 | 1011.5 |
| 20260506211831 | 68 | 218 | 2.6 | 8.7 | 0.00 | 0.00 | 0.00 | 75 | 1011.5 |
| 20260506211327 | 67 | 182 | 8.7 | 11.3 | 0.00 | 0.00 | 0.00 | 73 | 1011.2 |
| 20260506210824 | 67 | 230 | 1.7 | 5.2 | 0.00 | 0.00 | 0.00 | 75 | 1011.5 |
| 20260506210320 | 68 | 219 | 4.3 | 7.8 | 0.00 | 0.00 | 0.00 | 74 | 1011.4 |
| 20260506205818 | 68 | 242 | 2.6 | 7.0 | 0.00 | 0.00 | 0.00 | 73 | 1011.4 |
| 20260506205313 | 67 | 267 | 3.5 | 7.0 | 0.00 | 0.00 | 0.00 | 73 | 1011.1 |
| 20260506204804 | 67 | 265 | 2.6 | 7.0 | 0.00 | 0.00 | 0.00 | 75 | 1011.1 |
| 20260506204302 | 68 | 196 | 2.6 | 11.3 | 0.00 | 0.00 | 0.00 | 73 | 1011.2 |
| 20260506203759 | 69 | 174 | 5.2 | 8.7 | 0.00 | 0.00 | 0.00 | 73 | 1011.0 |
| 20260506203251 | 68 | 163 | 7.8 | 13.0 | 0.00 | 0.00 | 0.00 | 72 | 1010.9 |
| 20260506202748 | 68 | 159 | 3.5 | 6.1 | 0.00 | 0.00 | 0.00 | 72 | 1010.8 |
| 20260506202245 | 68 | 240 | 1.7 | 7.0 | 0.00 | 0.00 | 0.00 | 74 | 1011.2 |
| 20260506201742 | 69 | 254 | 1.7 | 7.0 | 0.00 | 0.00 | 0.00 | 73 | 1010.8 |
| 20260506201238 | 69 | 235 | 3.5 | 7.8 | 0.00 | 0.00 | 0.00 | 77 | 1011.1 |
| 20260506200736 | 69 | 244 | 5.2 | 11.3 | 0.00 | 0.00 | 0.00 | 75 | 1010.8 |
| 20260506200232 | 69 | 284 | 3.5 | 8.7 | 0.00 | 0.00 | 0.00 | 74 | 1011.0 |
| 20260506195728 | 67 | 133 | 5.2 | 8.7 | 0.00 | 0.00 | 0.00 | 75 | 1010.9 |
| 20260506195224 | 68 | 217 | 6.1 | 9.6 | 0.00 | 0.00 | 0.00 | 76 | 1011.0 |
| 20260506194721 | 69 | 213 | 5.2 | 11.3 | 0.00 | 0.00 | 0.00 | 72 | 1011.0 |
| 20260506194218 | 69 | 183 | 4.3 | 9.6 | 0.00 | 0.00 | 0.00 | 75 | 1011.0 |
| 20260506193716 | 69 | 204 | 4.3 | 7.8 | 0.00 | 0.00 | 0.00 | 74 | 1011.0 |
| 20260506193212 | 68 | 189 | 3.5 | 7.8 | 0.00 | 0.00 | 0.00 | 75 | 1010.9 |
| 20260506192709 | 68 | 197 | 4.3 | 8.7 | 0.00 | 0.00 | 0.00 | 77 | 1010.9 |
| 20260506192206 | 68 | 215 | 2.6 | 5.2 | 0.00 | 0.00 | 0.00 | 79 | 1010.7 |
| 20260506191703 | 67 | 228 | 4.3 | 7.0 | 0.00 | 0.00 | 0.00 | 82 | 1011.0 |
| 20260506191159 | 66 | 126 | 0.9 | 5.2 | 0.00 | 0.00 | 0.00 | 83 | 1010.9 |
| 20260506190656 | 67 | 207 | 3.5 | 5.2 | 0.00 | 0.00 | 0.00 | 84 | 1010.9 |
| 20260506190153 | 67 | 148 | 2.6 | 5.2 | 0.00 | 0.00 | 0.00 | 80 | 1010.9 |
| 20260506185651 | 67 | 232 | 1.7 | 6.1 | 0.00 | 0.00 | 0.00 | 81 | 1010.8 |
| 20260506185146 | 67 | 234 | 2.6 | 7.8 | 0.00 | 0.00 | 0.00 | 81 | 1010.7 |
| 20260506184644 | 67 | 263 | 2.6 | 3.5 | 0.00 | 0.00 | 0.00 | 80 | 1010.7 |
| 20260506184141 | 67 | 221 | 1.7 | 7.8 | 0.00 | 0.00 | 0.00 | 79 | 1011.0 |
| 20260506183638 | 68 | 197 | 2.6 | 7.8 | 0.00 | 0.00 | 0.00 | 78 | 1010.9 |
| 20260506183134 | 68 | 214 | 4.3 | 7.8 | 0.00 | 0.00 | 0.00 | 81 | 1011.0 |
| 20260506182632 | 67 | 175 | 1.7 | 7.0 | 0.00 | 0.00 | 0.00 | 82 | 1011.0 |
| 20260506182128 | 66 | 206 | 4.3 | 7.0 | 0.00 | 0.00 | 0.00 | 86 | 1011.0 |
| 20260506181626 | 65 | 146 | 6.1 | 7.8 | 0.00 | 0.00 | 0.00 | 82 | 1011.2 |
| 20260506181123 | 65 | 200 | 2.6 | 6.1 | 0.00 | 0.00 | 0.00 | 85 | 1011.2 |
| 20260506180620 | 65 | 201 | 3.5 | 5.2 | 0.00 | 0.00 | 0.00 | 87 | 1011.2 |
| 20260506180116 | 64 | 268 | 5.2 | 8.7 | 0.00 | 0.00 | 0.00 | 84 | 1011.4 |
| 20260506175613 | 65 | 288 | 3.5 | 6.1 | 0.00 | 0.00 | 0.00 | 86 | 1011.4 |
| 20260506175109 | 65 | 239 | 4.3 | 6.1 | 0.00 | 0.00 | 0.00 | 82 | 1011.2 |
| 20260506174608 | 66 | 266 | 3.5 | 7.0 | 0.00 | 0.00 | 0.00 | 80 | 1011.4 |
| 20260506174104 | 66 | 252 | 3.5 | 6.1 | 0.00 | 0.00 | 0.00 | 82 | 1011.4 |
| 20260506173602 | 66 | 104 | 3.5 | 7.0 | 0.00 | 0.00 | 0.00 | 80 | 1011.4 |
| 20260506173058 | 66 | 137 | 3.5 | 8.7 | 0.00 | 0.00 | 0.00 | 78 | 1011.2 |
| 20260506172556 | 65 | 178 | 7.8 | 11.3 | 0.00 | 0.00 | 0.00 | 79 | 1011.1 |
| 20260506172051 | 66 | 201 | 6.1 | 9.6 | 0.00 | 0.00 | 0.00 | 78 | 1011.1 |
| 20260506171549 | 66 | 217 | 3.5 | 7.0 | 0.00 | 0.00 | 0.00 | 80 | 1011.1 |
| 20260506171047 | 66 | 220 | 5.2 | 11.3 | 0.00 | 0.00 | 0.00 | 79 | 1011.1 |
| 20260506170543 | 66 | 223 | 5.2 | 7.8 | 0.00 | 0.00 | 0.00 | 78 | 1011.4 |
| 20260506170036 | 66 | 180 | 3.5 | 13.9 | 0.00 | 0.00 | 0.00 | 77 | 1011.1 |
| 20260506165534 | 66 | 189 | 5.2 | 9.6 | 0.00 | 0.00 | 0.00 | 78 | 1011.1 |
| 20260506165030 | 66 | 177 | 11.3 | 13.9 | 0.00 | 0.00 | 0.00 | 76 | 1011.0 |
| 20260506164527 | 66 | 228 | 7.8 | 12.2 | 0.00 | 0.00 | 0.00 | 78 | 1011.1 |
| 20260506164024 | 66 | 229 | 7.8 | 8.7 | 0.00 | 0.00 | 0.00 | 79 | 1011.5 |
| 20260506163520 | 66 | 146 | 8.7 | 13.9 | 0.00 | 0.00 | 0.00 | 76 | 1011.1 |
| 20260506163016 | 66 | 184 | 4.3 | 11.3 | 0.00 | 0.00 | 0.00 | 76 | 1011.2 |
| 20260506162512 | 66 | 176 | 7.0 | 13.9 | 0.00 | 0.00 | 0.00 | 77 | 1011.1 |
| 20260506162003 | 66 | 163 | 6.1 | 9.6 | 0.00 | 0.00 | 0.00 | 78 | 1011.0 |
| 20260506161500 | 66 | 203 | 8.7 | 12.2 | 0.00 | 0.00 | 0.00 | 76 | 1011.0 |
| 20260506160952 | 65 | 223 | 3.5 | 9.6 | 0.00 | 0.00 | 0.00 | 79 | 1010.9 |
| 20260506160449 | 65 | 221 | 7.8 | 9.6 | 0.00 | 0.00 | 0.00 | 80 | 1011.0 |
| 20260506155946 | 65 | 197 | 4.3 | 9.6 | 0.00 | 0.00 | 0.00 | 79 | 1011.0 |
| 20260506155444 | 64 | 246 | 4.3 | 11.3 | 0.00 | 0.00 | 0.00 | 81 | 1011.1 |
| 20260506153548 | 64 | 193 | 5.2 | 8.7 | 0.00 | 0.00 | 0.00 | 81 | 1010.9 |
| 20260506153046 | 64 | 248 | 2.6 | 7.8 | 0.00 | 0.00 | 0.00 | 82 | 1010.8 |
| 20260506152542 | 64 | 193 | 3.5 | 7.8 | 0.00 | 0.00 | 0.00 | 81 | 1011.0 |
| 20260506152041 | 64 | 246 | 5.2 | 8.7 | 0.00 | 0.00 | 0.00 | 83 | 1011.0 |
| 20260506151538 | 63 | 222 | 4.3 | 8.7 | 0.00 | 0.00 | 0.00 | 84 | 1010.9 |
| 20260506151035 | 63 | 193 | 3.5 | 7.8 | 0.00 | 0.00 | 0.00 | 84 | 1010.8 |
| 20260506150531 | 63 | 229 | 3.5 | 9.6 | 0.00 | 0.00 | 0.00 | 84 | 1010.8 |
| 20260506150029 | 62 | 152 | 3.5 | 7.8 | 0.00 | 0.00 | 0.00 | 86 | 1011.0 |
| 20260506145525 | 62 | 193 | 7.8 | 9.6 | 0.00 | 0.00 | 0.00 | 85 | 1010.8 |
| 20260506145023 | 62 | 230 | 2.6 | 6.1 | 0.00 | 0.00 | 0.00 | 89 | 1011.0 |
| 20260506144519 | 61 | 258 | 3.5 | 7.8 | 0.00 | 0.00 | 0.00 | 89 | 1010.9 |
| 20260506144017 | 61 | 248 | 5.2 | 7.0 | 0.00 | 0.00 | 0.00 | 90 | 1011.1 |
| 20260506143514 | 60 | 238 | 5.2 | 7.0 | 0.00 | 0.00 | 0.00 | 92 | 1011.1 |
| 20260506143013 | 60 | 252 | 3.5 | 6.1 | 0.00 | 0.00 | 0.00 | 93 | 1011.2 |
| 20260506142510 | 60 | 246 | 4.3 | 7.0 | 0.00 | 0.00 | 0.00 | 93 | 1011.2 |
| 20260506142008 | 60 | 219 | 3.5 | 6.1 | 0.00 | 0.00 | 0.00 | 91 | 1010.8 |
| 20260506141506 | 60 | 227 | 3.5 | 6.1 | 0.00 | 0.00 | 0.00 | 93 | 1011.1 |
| 20260506141004 | 60 | 267 | 1.7 | 5.2 | 0.00 | 0.00 | 0.00 | 93 | 1010.9 |
| 20260506140501 | 58 | 218 | 3.5 | 5.2 | 0.00 | 0.00 | 0.00 | 92 | 1011.1 |
| 20260506135957 | 58 | 210 | 2.6 | 7.0 | 0.00 | 0.00 | 0.00 | 94 | 1011.1 |
| 20260506135454 | 58 | 250 | 5.2 | 6.1 | 0.00 | 0.00 | 0.00 | 95 | 1011.6 |
| 20260506134950 | 58 | 227 | 2.6 | 6.1 | 0.00 | 0.00 | 0.00 | 95 | 1011.6 |
| 20260506134447 | 58 | 212 | 2.6 | 7.0 | 0.00 | 0.00 | 0.00 | 95 | 1011.4 |
| 20260506133943 | 58 | 282 | 4.3 | 5.2 | 0.00 | 0.00 | 0.00 | 96 | 1011.6 |
| 20260506133441 | 58 | 238 | 3.5 | 7.0 | 0.00 | 0.00 | 0.00 | 95 | 1011.5 |
| 20260506132937 | 58 | 254 | 2.6 | 7.8 | 0.00 | 0.00 | 0.00 | 95 | 1011.2 |
| 20260506132434 | 58 | 216 | 5.2 | 7.0 | 0.00 | 0.00 | 0.00 | 95 | 1011.4 |
| 20260506131932 | 57 | 185 | 3.5 | 6.1 | 0.00 | 0.00 | 0.00 | 95 | 1011.4 |
| 20260506131428 | 57 | 171 | 3.5 | 5.2 | 0.00 | 0.00 | 0.00 | 95 | 1011.5 |
| 20260506130925 | 57 | 291 | 3.5 | 7.8 | 0.00 | 0.00 | 0.00 | 94 | 1011.6 |
| 20260506130422 | 57 | 230 | 3.5 | 6.1 | 0.00 | 0.00 | 0.00 | 94 | 1011.4 |
| 20260506125920 | 57 | 228 | 3.5 | 7.8 | 0.00 | 0.00 | 0.00 | 95 | 1011.6 |
| 20260506125418 | 57 | 255 | 3.5 | 7.8 | 0.00 | 0.00 | 0.00 | 94 | 1011.5 |
| 20260506124916 | 57 | 208 | 6.1 | 7.8 | 0.00 | 0.00 | 0.00 | 94 | 1011.4 |
| 20260506124413 | 56 | 251 | 4.3 | 8.7 | 0.00 | 0.00 | 0.00 | 94 | 1011.4 |
| 20260506123911 | 56 | 208 | 5.2 | 7.8 | 0.00 | 0.00 | 0.00 | 94 | 1011.4 |
| 20260506123409 | 56 | 226 | 4.3 | 8.7 | 0.00 | 0.00 | 0.00 | 94 | 1011.1 |
| 20260506122906 | 56 | 264 | 3.5 | 7.0 | 0.00 | 0.00 | 0.00 | 95 | 1011.4 |
| 20260506122402 | 56 | 260 | 6.1 | 7.8 | 0.00 | 0.00 | 0.00 | 94 | 1011.5 |
| 20260506121901 | 56 | 160 | 5.2 | 8.7 | 0.00 | 0.00 | 0.00 | 94 | 1011.6 |
| 20260506121357 | 56 | 267 | 3.5 | 6.1 | 0.00 | 0.00 | 0.00 | 94 | 1011.5 |
| 20260506120854 | 56 | 256 | 4.3 | 7.0 | 0.00 | 0.00 | 0.00 | 94 | 1011.5 |
| 20260506120352 | 56 | 206 | 4.3 | 6.1 | 0.00 | 0.00 | 0.00 | 94 | 1011.5 |
| 20260506115849 | 56 | 252 | 3.5 | 7.0 | 0.00 | 0.00 | 0.00 | 94 | 1011.7 |
| 20260506115347 | 56 | 184 | 5.2 | 7.0 | 0.00 | 0.00 | 0.00 | 94 | 1011.6 |
| 20260506114845 | 56 | 227 | 3.5 | 6.1 | 0.00 | 0.00 | 0.00 | 94 | 1011.7 |
| 20260506114342 | 56 | 217 | 5.2 | 7.8 | 0.00 | 0.00 | 0.00 | 94 | 1011.4 |
| 20260506113841 | 56 | 209 | 4.3 | 5.2 | 0.00 | 0.00 | 0.00 | 95 | 1011.4 |
| 20260506113338 | 56 | 229 | 1.7 | 5.2 | 0.00 | 0.00 | 0.00 | 95 | 1011.6 |
| 20260506112835 | 55 | 254 | 1.7 | 3.5 | 0.00 | 0.00 | 0.00 | 96 | 1011.5 |
| 20260506112332 | 55 | 224 | 1.7 | 3.5 | 0.00 | 0.00 | 0.00 | 96 | 1011.6 |
| 20260506111829 | 55 | 252 | 2.6 | 3.5 | 0.00 | 0.00 | 0.00 | 96 | 1011.8 |
| 20260506111328 | 55 | 241 | 1.7 | 3.5 | 0.00 | 0.00 | 0.00 | 95 | 1011.5 |
| 20260506110825 | 56 | 253 | 1.7 | 3.5 | 0.00 | 0.00 | 0.00 | 95 | 1011.5 |
| 20260506110321 | 56 | 249 | 2.6 | 3.5 | 0.00 | 0.00 | 0.00 | 94 | 1011.5 |
| 20260506105819 | 56 | 244 | 2.6 | 2.6 | 0.00 | 0.00 | 0.00 | 92 | 1011.7 |
| 20260506105315 | 56 | 275 | 1.7 | 2.6 | 0.00 | 0.00 | 0.00 | 92 | 1011.4 |
| 20260506104812 | 56 | 214 | 2.6 | 2.6 | 0.00 | 0.00 | 0.00 | 93 | 1011.6 |
| 20260506104310 | 56 | 241 | 1.7 | 2.6 | 0.00 | 0.00 | 0.00 | 92 | 1011.2 |
| 20260506103808 | 56 | 212 | 1.7 | 2.6 | 0.00 | 0.00 | 0.00 | 91 | 1011.4 |
| 20260506103305 | 56 | 239 | 0.9 | 2.6 | 0.00 | 0.00 | 0.00 | 89 | 1011.6 |
| 20260506102802 | 57 | 232 | 1.7 | 2.6 | 0.00 | 0.00 | 0.00 | 87 | 1011.5 |
| 20260506102300 | 58 | 157 | 3.5 | 7.0 | 0.00 | 0.00 | 0.00 | 83 | 1011.4 |
| 20260506101757 | 58 | 205 | 3.5 | 6.1 | 0.00 | 0.00 | 0.00 | 79 | 1011.6 |
| 20260506101253 | 59 | 231 | 1.7 | 3.5 | 0.00 | 0.00 | 0.00 | 78 | 1011.4 |
| 20260506100751 | 60 | 248 | 4.3 | 6.1 | 0.00 | 0.00 | 0.00 | 69 | 1011.4 |
| 20260506100249 | 60 | 175 | 3.5 | 3.5 | 0.00 | 0.00 | 0.00 | 68 | 1011.2 |
| 20260506095747 | 61 | 195 | 0.0 | 5.2 | 0.00 | 0.00 | 0.00 | 69 | 1011.1 |
| 20260506095244 | 60 | 249 | 1.7 | 2.6 | 0.00 | 0.00 | 0.00 | 67 | 1011.1 |
| 20260506094740 | 61 | 227 | 1.7 | 2.6 | 0.00 | 0.00 | 0.00 | 66 | 1011.0 |
| 20260506094239 | 61 | 148 | 1.7 | 3.5 | 0.00 | 0.00 | 0.00 | 69 | 1010.9 |
| 20260506093737 | 62 | 177 | 3.5 | 6.1 | 0.00 | 0.00 | 0.00 | 64 | 1011.1 |
| 20260506093234 | 62 | 247 | 4.3 | 6.1 | 0.00 | 0.00 | 0.00 | 60 | 1011.0 |
| 20260506092732 | 62 | 243 | 3.5 | 7.0 | 0.00 | 0.00 | 0.00 | 60 | 1011.0 |
| 20260506092229 | 62 | 206 | 5.2 | 7.0 | 0.00 | 0.00 | 0.00 | 60 | 1011.1 |
| 20260506091726 | 62 | 194 | 1.7 | 5.2 | 0.00 | 0.00 | 0.00 | 61 | 1011.0 |
| 20260506091224 | 62 | 219 | 2.6 | 3.5 | 0.00 | 0.00 | 0.00 | 61 | 1010.7 |
| 20260506090722 | 62 | 202 | 0.9 | 2.6 | 0.00 | 0.00 | 0.00 | 62 | 1010.9 |
| 20260506090218 | 61 | 216 | 2.6 | 3.5 | 0.00 | 0.00 | 0.00 | 61 | 1010.7 |
| 20260506085715 | 62 | 254 | 2.6 | 3.5 | 0.00 | 0.00 | 0.00 | 61 | 1010.8 |
| 20260506085211 | 62 | 222 | 1.7 | 3.5 | 0.00 | 0.00 | 0.00 | 60 | 1010.7 |
| 20260506084708 | 61 | 230 | 4.3 | 7.0 | 0.00 | 0.00 | 0.00 | 59 | 1010.9 |
| 20260506084159 | 62 | 164 | 3.5 | 6.1 | 0.00 | 0.00 | 0.00 | 61 | 1010.9 |
| 20260506083656 | 61 | 216 | 1.7 | 6.1 | 0.00 | 0.00 | 0.00 | 63 | 1010.9 |
| 20260506083154 | 61 | 253 | 1.7 | 3.5 | 0.00 | 0.00 | 0.00 | 61 | 1011.0 |
| 20260506082651 | 61 | 258 | 2.6 | 5.2 | 0.00 | 0.00 | 0.00 | 60 | 1011.1 |
| 20260506082151 | 62 | 194 | 3.5 | 6.1 | 0.00 | 0.00 | 0.00 | 58 | 1011.2 |
| 20260506081649 | 62 | 223 | 3.5 | 7.8 | 0.00 | 0.00 | 0.00 | 58 | 1011.2 |
| 20260506081147 | 61 | 268 | 3.5 | 7.0 | 0.00 | 0.00 | 0.00 | 59 | 1011.1 |
| 20260506080644 | 60 | 199 | 3.5 | 6.1 | 0.00 | 0.00 | 0.00 | 62 | 1011.2 |
| 20260506080141 | 60 | 233 | 2.6 | 3.5 | 0.00 | 0.00 | 0.00 | 64 | 1011.5 |
| 20260506073125 | 57 | 259 | 0.0 | 2.6 | 0.00 | 0.00 | 0.00 | 67 | 1011.5 |
| 20260506072621 | 57 | 180 | 0.9 | 1.7 | 0.00 | 0.00 | 0.00 | 67 | 1011.5 |
| 20260506072119 | 58 | 230 | 0.0 | 0.9 | 0.00 | 0.00 | 0.00 | 65 | 1011.6 |
| 20260506071617 | 58 | 246 | 0.0 | 0.9 | 0.00 | 0.00 | 0.00 | 65 | 1011.5 |
| 20260506071114 | 57 | 240 | 0.0 | 0.9 | 0.00 | 0.00 | 0.00 | 66 | 1011.5 |
| 20260506070611 | 58 | 172 | 0.9 | 1.7 | 0.00 | 0.00 | 0.00 | 65 | 1011.6 |
| 20260506070108 | 60 | 265 | 0.9 | 1.7 | 0.00 | 0.00 | 0.00 | 61 | 1011.4 |
| 20260506062045 | 60 | 228 | 0.9 | 1.7 | 0.00 | 0.00 | 0.00 | 60 | 1011.9 |
| 20260506061541 | 61 | 179 | 0.9 | 3.5 | 0.00 | 0.00 | 0.00 | 60 | 1011.7 |
| 20260506061038 | 61 | 185 | 0.0 | 1.7 | 0.00 | 0.00 | 0.00 | 58 | 1011.9 |
| 20260506060537 | 61 | 204 | 1.7 | 2.6 | 0.00 | 0.00 | 0.00 | 57 | 1012.2 |
| 20260506051006 | 62 | 260 | 2.6 | 2.6 | 0.00 | 0.00 | 0.00 | 56 | 1012.9 |
| 20260506050503 | 62 | 247 | 1.7 | 2.6 | 0.00 | 0.00 | 0.00 | 56 | 1012.7 |
| 20260506044954 | 62 | 242 | 2.6 | 5.2 | 0.00 | 0.00 | 0.00 | 54 | 1013.2 |
| 20260506044452 | 62 | 214 | 1.7 | 1.7 | 0.00 | 0.00 | 0.00 | 56 | 1013.3 |
| 20260506043948 | 61 | 273 | 4.3 | 6.1 | 0.00 | 0.00 | 0.00 | 57 | 1013.2 |
| 20260506043445 | 60 | 220 | 0.0 | 3.5 | 0.00 | 0.00 | 0.00 | 60 | 1013.2 |
| 20260506042943 | 59 | 242 | 0.9 | 2.6 | 0.00 | 0.00 | 0.00 | 61 | 1013.3 |
| 20260506042443 | 59 | 197 | 1.7 | 1.7 | 0.00 | 0.00 | 0.00 | 64 | 1013.0 |
| 20260506041940 | 58 | 241 | 0.0 | 2.6 | 0.00 | 0.00 | 0.00 | 62 | 1013.3 |
| 20260506041438 | 57 | 67 | 0.9 | 2.6 | 0.00 | 0.00 | 0.00 | 63 | 1013.0 |
| 20260506040935 | 57 | 114 | 0.0 | 0.9 | 0.00 | 0.00 | 0.00 | 64 | 1012.8 |
| 20260506040432 | 58 | 297 | 0.0 | 0.0 | 0.00 | 0.00 | 0.00 | 63 | 1012.9 |
| 20260506035928 | 59 | 231 | 0.0 | 1.7 | 0.00 | 0.00 | 0.00 | 62 | 1013.0 |
| 20260506035426 | 59 | 179 | 2.6 | 2.6 | 0.00 | 0.00 | 0.00 | 60 | 1013.2 |
| 20260506034922 | 58 | 231 | 0.9 | 1.7 | 0.00 | 0.00 | 0.00 | 62 | 1012.9 |
| 20260506034420 | 59 | 159 | 0.0 | 0.0 | 0.00 | 0.00 | 0.00 | 62 | 1013.2 |
| 20260506033917 | 57 | 238 | 0.0 | 0.0 | 0.00 | 0.00 | 0.00 | 63 | 1012.9 |
| 20260506033414 | 57 | 96 | 0.9 | 1.7 | 0.00 | 0.00 | 0.00 | 64 | 1013.0 |
| 20260506032911 | 59 | 257 | 0.0 | 0.9 | 0.00 | 0.00 | 0.00 | 62 | 1013.0 |
| 20260506032408 | 57 | 257 | 0.0 | 0.9 | 0.00 | 0.00 | 0.00 | 64 | 1013.2 |
| 20260506031904 | 57 | 78 | 0.0 | 0.0 | 0.00 | 0.00 | 0.00 | 64 | 1013.4 |
| 20260506031401 | 57 | 54 | 0.0 | 0.9 | 0.00 | 0.00 | 0.00 | 64 | 1013.5 |
| 20260506030859 | 58 | 40 | 0.0 | 0.9 | 0.00 | 0.00 | 0.00 | 64 | 1013.2 |
| 20260506030357 | 58 | 244 | 0.0 | 0.9 | 0.00 | 0.00 | 0.00 | 62 | 1013.4 |
| 20260506025854 | 59 | 187 | 0.0 | 0.9 | 0.00 | 0.00 | 0.00 | 62 | 1013.4 |
| 20260506025350 | 59 | 239 | 0.0 | 0.0 | 0.00 | 0.00 | 0.00 | 61 | 1013.4 |
| 20260506024847 | 59 | 274 | 0.0 | 0.9 | 0.00 | 0.00 | 0.00 | 59 | 1013.7 |
| 20260506024344 | 59 | 70 | 0.0 | 0.9 | 0.00 | 0.00 | 0.00 | 59 | 1013.6 |
| 20260506023840 | 59 | 90 | 0.0 | 0.0 | 0.00 | 0.00 | 0.00 | 60 | 1013.6 |
| 20260506023337 | 60 | 145 | 0.0 | 0.9 | 0.00 | 0.00 | 0.00 | 59 | 1013.5 |
| 20260506022834 | 60 | 353 | 0.9 | 0.9 | 0.00 | 0.00 | 0.00 | 55 | 1013.6 |
| 20260506022332 | 60 | 189 | 0.0 | 0.9 | 0.00 | 0.00 | 0.00 | 58 | 1013.6 |
| 20260506021830 | 61 | 204 | 0.0 | 0.9 | 0.00 | 0.00 | 0.00 | 55 | 1013.6 |
| 20260506021326 | 61 | 245 | 0.0 | 0.9 | 0.00 | 0.00 | 0.00 | 55 | 1013.7 |
| 20260506020823 | 62 | 160 | 1.7 | 3.5 | 0.00 | 0.00 | 0.00 | 54 | 1013.6 |
| 20260506020321 | 62 | 163 | 0.0 | 0.9 | 0.00 | 0.00 | 0.00 | 55 | 1013.4 |
| 20260506015818 | 62 | 137 | 0.0 | 1.7 | 0.00 | 0.00 | 0.00 | 50 | 1013.5 |
| 20260506015316 | 63 | 180 | 0.0 | 1.7 | 0.00 | 0.00 | 0.00 | 50 | 1013.4 |
| 20260506014812 | 64 | 161 | 0.0 | 2.6 | 0.00 | 0.00 | 0.00 | 50 | 1013.6 |
| 20260506014309 | 64 | 265 | 1.7 | 2.6 | 0.00 | 0.00 | 0.00 | 48 | 1013.4 |
| 20260506013806 | 64 | 103 | 2.6 | 2.6 | 0.00 | 0.00 | 0.00 | 49 | 1012.9 |
| 20260506013303 | 64 | 275 | 1.7 | 2.6 | 0.00 | 0.00 | 0.00 | 49 | 1013.2 |
| 20260506012759 | 62 | 278 | 0.9 | 1.7 | 0.00 | 0.00 | 0.00 | 53 | 1013.2 |
| 20260506012256 | 62 | 142 | 0.0 | 0.9 | 0.00 | 0.00 | 0.00 | 55 | 1013.0 |
| 20260506011754 | 63 | 109 | 0.0 | 0.0 | 0.00 | 0.00 | 0.00 | 54 | 1013.0 |
| 20260506011250 | 63 | 281 | 0.0 | 0.0 | 0.00 | 0.00 | 0.00 | 51 | 1013.0 |
| 20260506010748 | 63 | 235 | 0.0 | 0.0 | 0.00 | 0.00 | 0.00 | 52 | 1013.3 |
| 20260506010245 | 63 | 283 | 0.0 | 0.9 | 0.00 | 0.00 | 0.00 | 51 | 1013.2 |
| 20260506005743 | 63 | 138 | 0.0 | 0.9 | 0.00 | 0.00 | 0.00 | 52 | 1012.8 |
| 20260506005239 | 63 | 110 | 0.0 | 0.9 | 0.00 | 0.00 | 0.00 | 51 | 1012.8 |
| 20260506004735 | 63 | 282 | 0.0 | 1.7 | 0.00 | 0.00 | 0.00 | 55 | 1012.9 |
| 20260506004233 | 64 | 114 | 0.0 | 0.9 | 0.00 | 0.00 | 0.00 | 49 | 1012.7 |
| 20260506003728 | 64 | 127 | 0.0 | 0.9 | 0.00 | 0.00 | 0.00 | 51 | 1012.8 |
| 20260506003225 | 65 | 179 | 0.0 | 1.7 | 0.00 | 0.00 | 0.00 | 49 | 1012.7 |
| 20260506002721 | 64 | 247 | 0.0 | 0.9 | 0.00 | 0.00 | 0.00 | 50 | 1012.7 |
| 20260506002218 | 64 | 121 | 0.0 | 0.9 | 0.00 | 0.00 | 0.00 | 47 | 1012.9 |
| 20260506001713 | 64 | 147 | 0.0 | 0.0 | 0.00 | 0.00 | 0.00 | 49 | 1012.8 |
| 20260506001211 | 65 | 142 | 0.0 | 0.9 | 0.00 | 0.00 | 0.00 | 48 | 1012.8 |
| 20260506000708 | 64 | 234 | 0.0 | 2.6 | 0.00 | 0.00 | 0.00 | 49 | 1012.5 |
| 20260506000206 | 65 | 289 | 0.0 | 1.7 | 0.00 | 0.00 | 0.00 | 45 | 1012.8 |
| 20260505235703 | 66 | 239 | 0.9 | 1.7 | 0.00 | 0.00 | 0.00 | 41 | 1012.6 |
| 20260505235200 | 66 | 207 | 0.9 | 1.7 | 0.00 | 0.00 | 0.00 | 45 | 1012.6 |
| 20260505234657 | 67 | 156 | 0.9 | 1.7 | 0.00 | 0.00 | 0.00 | 41 | 1012.2 |
| 20260505234154 | 68 | 152 | 0.0 | 1.7 | 0.00 | 0.00 | 0.00 | 42 | 1012.2 |
| 20260505233651 | 68 | 125 | 0.0 | 0.9 | 0.00 | 0.00 | 0.00 | 41 | 1012.1 |
| 20260505233149 | 70 | 239 | 0.0 | 1.7 | 0.00 | 0.00 | 0.00 | 35 | 1012.2 |
| 20260505232646 | 71 | 223 | 1.7 | 3.5 | 0.00 | 0.00 | 0.00 | 32 | 1012.3 |
| 20260505232143 | 71 | 181 | 3.5 | 6.1 | 0.00 | 0.00 | 0.00 | 29 | 1012.2 |
| 20260505231640 | 72 | 207 | 4.3 | 8.7 | 0.00 | 0.00 | 0.00 | 30 | 1012.0 |
| 20260505231139 | 74 | 188 | 4.3 | 6.1 | 0.00 | 0.00 | 0.00 | 30 | 1012.4 |
| 20260505230637 | 74 | 130 | 3.5 | 3.5 | 0.00 | 0.00 | 0.00 | 30 | 1012.1 |
| 20260505230133 | 74 | 205 | 7.0 | 9.6 | 0.00 | 0.00 | 0.00 | 28 | 1012.1 |
| 20260505225629 | 75 | 215 | 3.5 | 8.7 | 0.00 | 0.00 | 0.00 | 30 | 1012.2 |
| 20260505225125 | 74 | 232 | 3.5 | 11.3 | 0.00 | 0.00 | 0.00 | 31 | 1012.3 |